Weather History for Wenatchee, WA

Change the Weather History Date:

Wednesday, November 6, 2013

  Actual Average Record
Temperature  
Mean Temperature 34 °F 38 °F  
Max Temperature 36 °F 46 °F 59 °F (1997)
Min Temperature 32 °F 30 °F 14 °F (2003)
Degree Days  
Heating Degree Days 31 27  
Month to date heating degree days 181 158  
Since 1 July heating degree days 1071 1114  
Cooling Degree Days 0 0  
Month to date cooling degree days 0 0  
Year to date cooling degree days 383 249  
Moisture  
Dew Point 31 °F    
Average Humidity 80    
Maximum Humidity 93    
Minimum Humidity 70    
Precipitation  
Precipitation 0.00 in 0.07 in 0.83 in (2006)
Month to date precipitation 0.63 0.36  
Year to date precipitation 11.26 12.70  
Snow  
Snow 0.00 in 0.10 in - ()
Month to date snowfall 2.7 0.3  
Since 1 July snowfall 2.7 0.4  
Since 1 September snowfall 2.7 0.4  
Snow Depth 0.00 in    
Sea Level Pressure  
Sea Level Pressure 30.34 in    
Wind  
Wind Speed 3 mph (SE)    
Max Wind Speed 9 mph    
Max Gust Speed -    
Visibility 9 miles    
Events Rain    
T = Trace of Precipitation, MM = Missing Value Source: NWS Daily Summary

Daily Weather History Graph

Daily Weather History Graph

Search for Another Location

Airport:

Trip Planner

Search our weather history database for the weather conditions in past years. The results will help you decide how hot, cold, wet, or windy it might be!

Date:

Astronomy

Nov. 06, 2013 Rise Set
Actual Time 6:52 AM PST 4:35 PM PST
Civil Twilight 6:19 AM PST 5:08 PM PST
Nautical Twilight 5:43 AM PST 5:45 PM PST
Astronomical Twilight 5:07 AM PST 6:20 PM PST
Moon 10:17 AM PST (11/6) 7:40 PM PST (11/6)
Length of Visible Light 10h 48m
Length of Day
9h 43m
Waxing Crescent, 14% of the Moon is Illuminated
Nov 6
Waxing Crescent
Nov 9
First Quarter
Nov 17
Full
Nov 25
Last Quarter
Dec 2
New

Hourly Weather History & Observations

Time (PST) Temp. Windchill Dew Point Humidity Pressure Visibility Wind Dir Wind Speed Gust Speed Precip Events Conditions
12:55 AM 30.0 °F 26.5 °F 28.0 °F 92% 30.27 in 10.0 mi East 3.5 mph - N/A   Clear
1:55 AM 28.9 °F 25.2 °F 27.0 °F 92% 30.28 in 9.0 mi ENE 3.5 mph - N/A   Clear
2:55 AM 30.0 °F 26.5 °F 27.0 °F 88% 30.30 in 9.0 mi NNE 3.5 mph - N/A   Clear
3:28 AM 30.2 °F - 28.4 °F 93% 30.27 in 9.0 mi Calm Calm - N/A   Mostly Cloudy
3:55 AM 32.0 °F 27.5 °F 28.9 °F 88% 30.30 in 9.0 mi NW 4.6 mph - N/A   Overcast
4:39 AM 33.8 °F - 30.2 °F 87% 30.28 in 9.0 mi Calm Calm - N/A   Overcast
4:55 AM 34.0 °F 31.0 °F 30.9 °F 89% 30.32 in 9.0 mi NW 3.5 mph - N/A   Overcast
5:55 AM 34.0 °F - 30.9 °F 89% 30.34 in 9.0 mi Calm Calm - N/A   Overcast
6:55 AM 34.0 °F 31.0 °F 30.9 °F 89% 30.35 in 8.0 mi WNW 3.5 mph - N/A   Overcast
7:55 AM 34.0 °F - 30.9 °F 89% 30.39 in 6.0 mi Calm Calm - N/A   Overcast
8:55 AM 35.1 °F - 30.9 °F 85% 30.39 in 6.0 mi Calm Calm - N/A   Overcast
9:18 AM 35.6 °F 31.7 °F 30.2 °F 81% 30.36 in 8.0 mi SE 4.6 mph - N/A   Overcast
9:55 AM 37.0 °F 30.4 °F 30.9 °F 79% 30.40 in 10.0 mi SSE 9.2 mph - N/A   Mostly Cloudy
10:03 AM 37.4 °F 30.8 °F 30.2 °F 75% 30.36 in 10.0 mi SE 9.2 mph - N/A   Mostly Cloudy
10:55 AM 37.9 °F 32.1 °F 32.0 °F 79% 30.40 in 10.0 mi SSE 8.1 mph - N/A   Overcast
11:55 AM 39.0 °F 34.8 °F 30.9 °F 73% 30.40 in 10.0 mi SSE 5.8 mph - N/A   Overcast
12:55 PM 39.0 °F - 30.9 °F 73% 30.38 in 10.0 mi Calm Calm - N/A   Overcast
1:06 PM 39.2 °F 37.0 °F 30.2 °F 70% 30.34 in 10.0 mi SE 3.5 mph - N/A   Overcast
1:16 PM 39.2 °F 37.0 °F 30.2 °F 70% 30.34 in 10.0 mi SSE 3.5 mph - N/A   Overcast
1:55 PM 39.9 °F 36.7 °F 30.9 °F 70% 30.37 in 10.0 mi SSE 4.6 mph - N/A   Overcast
2:36 PM 41.0 °F 39.0 °F 32.0 °F 70% 30.33 in 10.0 mi Variable 3.5 mph - N/A   Overcast
2:55 PM 41.0 °F 38.0 °F 32.0 °F 70% 30.36 in 10.0 mi South 4.6 mph - N/A   Overcast
3:55 PM 41.0 °F - 32.0 °F 70% 30.36 in 10.0 mi Calm Calm - N/A   Overcast
4:55 PM 39.9 °F - 32.0 °F 73% 30.36 in 10.0 mi Calm Calm - N/A   Overcast
5:55 PM 39.9 °F 37.8 °F 32.0 °F 73% 30.36 in 10.0 mi WNW 3.5 mph - N/A   Overcast
6:55 PM 39.9 °F 37.8 °F 32.0 °F 73% 30.36 in 10.0 mi West 3.5 mph - N/A   Overcast
7:55 PM 39.9 °F - 33.1 °F 77% 30.35 in 10.0 mi Calm Calm - 0.00 in   Overcast
8:55 PM 39.9 °F - 33.1 °F 77% 30.34 in 10.0 mi Calm Calm - 0.00 in Rain Light Rain
9:55 PM 39.0 °F - 34.0 °F 82% 30.32 in 9.0 mi Calm Calm - 0.03 in Rain Light Rain
10:55 PM 37.9 °F - 34.0 °F 86% 30.30 in 10.0 mi Calm Calm - 0.01 in Rain Light Rain
11:55 PM 37.0 °F - 34.0 °F 89% 30.28 in 9.0 mi Calm Calm - 0.01 in   Overcast